Flag for Canada Weather past 2 weeks in Vaughan, Ontario, Canada

30 °F


Feels Like: 23 °F
Forecast: 26 / 37 °F
Wind: 8 mph from North

Location: Toronto Buttonville

Current Time: Nov 28, 2015 at 8:42:28 AM

Latest Report: Nov 28, 2015 at 8:00 AM

Visibility: 15 mi

Pressure: 30.37 "Hg

Humidity: 86%

Dew point: 27 °F

Location of VaughanLocation

Historic Weather in Vaughan — Graph


Vaughan temperature yesterday

Maximum temperature yesterday: 59 °F (at 1:00 AM)
Minimum temperature yesterday: 34 °F (at 9:00 PM)
Average temperature yesterday: 49 °F

Past Weeks' High & Low Weather Summary

High59 °F (Nov 15, 3:00 PM)100% (Nov 25, 6:51 AM)30.61 "Hg (Nov 25, 6:51 AM)
Low19 °F (Nov 23, 7:00 AM)37% (Nov 17, 2:00 PM)29.53 "Hg (Nov 13, 7:00 AM)
Average41 °F74%30.16 "Hg
* Reported Nov 13 7:00 AM — Nov 28 7:00 AM, Vaughan, Weather by CustomWeather, © 2015

Note: Actual official high and low records may vary slightly from our data, if they occured in-between our weather recording intervals... More about our weather records


Vaughan weather history for previous 24 hours

Time TempWeatherWind HumidityBarometerVisibility
7:00 AM
Sat, Nov 28
30 °FOvercast.8 mph86%30.37 "Hg15 mi
6:00 AM32 °FOvercast.9 mph80%30.34 "Hg15 mi
5:00 AM32 °FOvercast.10 mph80%30.35 "Hg15 mi
4:00 AM32 °FOvercast.10 mph80%30.35 "Hg15 mi
3:00 AM32 °FOvercast.10 mph87%30.36 "Hg15 mi
2:00 AM32 °FMostly cloudy.7 mph87%30.35 "Hg15 mi
1:00 AM34 °FMostly cloudy.10 mph81%30.34 "Hg15 mi
12:00 AM34 °FOvercast.9 mph81%30.33 "Hg15 mi
11:00 PM
Fri, Nov 27
34 °FOvercast.12 mph87%30.33 "Hg15 mi
10:00 PM34 °FOvercast.13 mph87%30.32 "Hg12 mi
9:00 PM34 °FSprinkles. Overcast.13 mph87%30.32 "Hg12 mi
8:00 PM36 °FSprinkles. Mostly cloudy.16 mph87%30.30 "Hg10 mi
6:00 PM37 °FSprinkles. Overcast.18 mph87%30.26 "Hg12 mi
5:00 PM39 °FSprinkles. Partly cloudy.13 mph93%30.23 "Hg13 mi
4:58 PM39 °FSprinkles. Low clouds.15 mph93%30.23 "Hg13 mi
4:00 PM41 °FSprinkles. More clouds than sun.15 mph87%30.20 "Hg10 mi
3:00 PM45 °FLight rain. Mostly cloudy.12 mph87%30.18 "Hg10 mi
2:00 PM46 °FLight rain. Fog.15 mph93%30.17 "Hg2 mi
1:04 PM54 °FLight rain. Low clouds.10 mph88%30.14 "Hg13 mi
12:00 PM54 °FLight rain. Overcast.10 mph88%30.16 "Hg12 mi
11:00 AM54 °FLight rain. Mostly cloudy.9 mph88%30.18 "Hg10 mi
10:00 AM54 °FSprinkles. Cloudy.8 mph82%30.19 "Hg12 mi
9:00 AM55 °FScattered showers. Cloudy.8 mph63%30.19 "Hg14 mi
8:00 AM55 °FScattered showers. Mostly cloudy.8 mph63%30.21 "Hg14 mi
Weather by CustomWeather, © 2015

See weather overviewHow to use our weather pages